Weather History for Scappoose, OR

Change the Weather History Date:

Wednesday, January 9, 2013

  Actual Average Record
Temperature  
Mean Temperature 40 °F -  
Max Temperature 51 °F - 52 °F (2006)
Min Temperature 30 °F - 30 °F (2003)
Degree Days  
Heating Degree Days 24    
Month to date heating degree days 246  
Since 1 July heating degree days 2086  
Cooling Degree Days 0    
Month to date cooling degree days 0  
Year to date cooling degree days 0  
Moisture  
Dew Point 37 °F    
Average Humidity 82    
Maximum Humidity 92    
Minimum Humidity 71    
Precipitation  
Precipitation 0.25 in - 1.05 in (2006)
Month to date precipitation 0.76  
Year to date precipitation 0.76  
Sea Level Pressure  
Sea Level Pressure 29.89 in    
Wind  
Wind Speed 3 mph (West)    
Max Wind Speed 12 mph    
Max Gust Speed 21 mph    
Visibility 9 miles    
Events Rain    
T = Trace of Precipitation, MM = Missing Value Source: NWS Daily Summary

Daily Weather History Graph

Daily Weather History Graph

Search for Another Location

Airport:

Trip Planner

Search our weather history database for the weather conditions in past years. The results will help you decide how hot, cold, wet, or windy it might be!

Date:

Astronomy

Jan. 09, 2013 Rise Set
Actual Time 7:51 AM PST 4:46 PM PST
Civil Twilight 7:17 AM PST 5:20 PM PST
Nautical Twilight 6:40 AM PST 5:57 PM PST
Astronomical Twilight 6:04 AM PST 6:33 PM PST
Moon 5:36 AM PST (1/9) 2:53 PM PST (1/9)
Length of Visible Light 10h 02m
Length of Day
8h 55m
Waning Crescent, 6% of the Moon is Illuminated
Jan 9
Waning Crescent
Jan 11
New
Jan 18
First Quarter
Jan 26
Full
Feb 3
Last Quarter

Hourly Weather History & Observations

Time (PST) Temp. Windchill Dew Point Humidity Pressure Visibility Wind Dir Wind Speed Gust Speed Precip Events Conditions
12:53 AM 51.1 °F - 43.0 °F 74% 29.88 in 10.0 mi South 5.8 mph - N/A   Overcast
1:53 AM 48.9 °F - 43.0 °F 80% 29.85 in 10.0 mi Calm Calm - N/A   Partly Cloudy
2:53 AM 48.9 °F - 42.1 °F 77% 29.81 in 10.0 mi South 6.9 mph - N/A   Clear
3:53 AM 50.0 °F - 42.1 °F 74% 29.78 in 10.0 mi South 5.8 mph - N/A   Clear
4:53 AM 48.9 °F - 42.1 °F 77% 29.72 in 10.0 mi SSE 6.9 mph - N/A   Mostly Cloudy
5:53 AM 48.0 °F - 43.0 °F 83% 29.70 in 8.0 mi SSW 6.9 mph - 0.02 in Rain Light Rain
6:43 AM 42.8 °F 38.0 °F 39.2 °F 87% 29.74 in 5.0 mi WNW 8.1 mph 20.7 mph 0.11 in Rain Heavy Rain
6:53 AM 42.1 °F 37.1 °F 37.9 °F 85% 29.75 in 7.0 mi NW 8.1 mph - 0.13 in Rain Rain
7:53 AM 39.9 °F 37.8 °F 36.0 °F 86% 29.78 in 10.0 mi NW 3.5 mph - 0.01 in   Overcast
8:53 AM 39.9 °F 35.8 °F 35.1 °F 83% 29.81 in 10.0 mi North 5.8 mph - N/A   Overcast
9:45 AM 41.0 °F - 35.6 °F 81% 29.86 in 10.0 mi Calm Calm - N/A   Overcast
9:53 AM 39.9 °F - 37.0 °F 89% 29.86 in 10.0 mi Calm Calm - N/A   Overcast
10:53 AM 41.0 °F - 37.9 °F 89% 29.88 in 10.0 mi Calm Calm - 0.00 in Rain Light Rain
11:12 AM 41.0 °F - 37.4 °F 87% 29.88 in 10.0 mi Calm Calm - 0.01 in Rain Light Rain
11:53 AM 41.0 °F 39.0 °F 37.9 °F 89% 29.88 in 8.0 mi NNE 3.5 mph - 0.02 in Rain Light Rain
12:53 PM 42.1 °F 40.2 °F 39.0 °F 89% 29.88 in 10.0 mi East 3.5 mph - 0.01 in Rain Light Rain
1:06 PM 42.8 °F - 39.2 °F 87% 29.89 in 10.0 mi Calm Calm - 0.00 in Rain Light Rain
1:53 PM 42.1 °F - 39.0 °F 89% 29.90 in 10.0 mi Calm Calm - 0.00 in   Overcast
2:17 PM 42.8 °F - 39.2 °F 87% 29.91 in 10.0 mi Calm Calm - N/A   Mostly Cloudy
2:38 PM 42.8 °F - 39.2 °F 87% 29.91 in 10.0 mi Calm Calm - N/A   Mostly Cloudy
2:53 PM 43.0 °F 40.3 °F 39.0 °F 86% 29.91 in 10.0 mi ESE 4.6 mph - N/A   Mostly Cloudy
3:10 PM 41.0 °F 38.0 °F 37.4 °F 87% 29.92 in 2.5 mi SW 4.6 mph - 0.05 in Rain Light Rain
3:17 PM 41.0 °F 39.0 °F 37.4 °F 87% 29.92 in 10.0 mi SW 3.5 mph - 0.05 in Rain Light Rain
3:53 PM 41.0 °F - 37.9 °F 89% 29.93 in 10.0 mi Calm Calm - 0.05 in   Mostly Cloudy
4:53 PM 37.9 °F - 35.1 °F 89% 29.94 in 10.0 mi Calm Calm - 0.00 in   Partly Cloudy
5:53 PM 36.0 °F - 34.0 °F 93% 29.95 in 10.0 mi Calm Calm - 0.00 in   Partly Cloudy
6:53 PM 35.1 °F 32.2 °F 33.1 °F 92% 29.96 in 10.0 mi NNE 3.5 mph - N/A   Mostly Cloudy
7:53 PM 32.0 °F - 30.9 °F 96% 29.96 in 10.0 mi Calm Calm - N/A   Partly Cloudy
8:53 PM 33.1 °F - 32.0 °F 96% 29.97 in 10.0 mi Calm Calm - 0.00 in Rain Light Rain
9:53 PM 34.0 °F - 32.0 °F 92% 29.98 in 10.0 mi Calm Calm - 0.01 in   Mostly Cloudy
10:53 PM 32.0 °F - 30.0 °F 92% 29.99 in 10.0 mi Calm Calm - N/A   Scattered Clouds
11:14 PM 30.2 °F - 30.2 °F 100% 29.99 in 1.8 mi Calm Calm - N/A   Partly Cloudy
11:27 PM 30.2 °F 26.7 °F 30.2 °F 100% 29.99 in 3.0 mi WNW 3.5 mph - N/A   Scattered Clouds
11:43 PM 30.2 °F - 30.2 °F 100% 29.99 in 2.5 mi Calm Calm - N/A   Mostly Cloudy
11:50 PM 32.0 °F 28.7 °F 30.2 °F 93% 29.99 in 6.0 mi NW 3.5 mph - N/A   Overcast
11:53 PM 32.0 °F 28.7 °F 30.0 °F 92% 29.99 in 6.0 mi NW 3.5 mph - N/A   Overcast